User: anonymous   Login
Location: *
(37.5724°S, 58.0067°E)
Time: 05:19:41
(UTC+00:00)
Language:

Cosmos 1943 Rocket - Orbit

View from above orbital plane
View from above orbital plane
View from above satellite
View from above satellite

Ground track
Ground track

The orbit data is extracted from the following two-line orbital elements,

1 19120U 88039B   21134.59577556 -.00000003  00000-0  21391-4 0  9995
2 19120  71.0146 188.8004 0021287 165.2959 194.8789 14.19223578708902
Epoch (UTC): 14 May 2021 14:17:55
Eccentricity: 0.0021287
inclination: 71.0146°
perigee height: 812 km
apogee height: 843 km
right ascension of ascending node: 188.8004°
argument of perigee: 165.2959°
revolutions per day: 14.19223578
mean anomaly at epoch: 194.8789°
orbit number at epoch: 70890

The dashed part of the orbit path shows where the satellite is in the earth's shadow,  

DLR